This demonstration page uses our WeatherBlox Daily Observations layout. Learn more.

41.86663, -103.66717

Hourly Observations for December 29, 2019

Temp ( °F °C ) Dew Point ( °F °C ) Humidity (%) Winds ( mph kmh ) Pressure ( in mb ) Visibility ( mi km ) Precip ( " mm )
12:53 am 00:53 Cloudy 25 -3.9 19 -7.2 78 78 NW 20 31 29.89 1012 10 16.0934 0 0
1:53 am 01:53 Cloudy 24 -4.4 18 -7.8 77 77 NW 22 35 29.91 1013 10 16.0934 0 0
2:53 am 02:53 Cloudy 24 -4.4 19 -7.2 81 81 NW 22 35 29.91 1013 10 16.0934 0 0
3:53 am 03:53 Cloudy 25 -3.9 19 -7.2 78 78 NW 24 39 29.9 1013 10 16.0934 0 0
4:53 am 04:53 Cloudy 24 -4.4 18 -7.8 77 77 NW 25 41 29.9 1013 10 16.0934 0 0
5:53 am 05:53 Windy with Snow Likely 24 -4.4 18 -7.8 77 77 NW 24 39 29.92 1013 9 14.48406 0.001 0.001
6:53 am 06:53 Cloudy 25 -3.9 18 -7.8 75 75 NW 24 39 29.93 1014 10 16.0934 0.001 0.001
7:53 am 07:53 Cloudy 25 -3.9 19 -7.2 78 78 NW 23 37 29.94 1014 10 16.0934 0 0
8:53 am 08:53 Cloudy 26 -3.3 20 -6.7 78 78 NW 25 41 29.95 1014 10 16.0934 0.001 0.001
9:53 am 09:53 Cloudy 27 -2.8 21 -6.1 78 78 WNW 30 48 29.96 1014 10 16.0934 0 0
10:53 am 10:53 Windy with Snow Likely 28 -2.2 21 -6.1 75 75 WNW 25 41 29.94 1014 9 14.48406 0.001 0.001
11:53 am 11:53 Cloudy 29 -1.7 21 -6.1 72 72 NW 32 52 29.93 1014 10 16.0934 0.001 0.001
12:53 pm 12:53 Cloudy 29 -1.7 21 -6.1 72 72 NW 31 50 29.93 1014 10 16.0934 0 0
1:53 pm 13:53 Cloudy 29 -1.7 22 -5.6 75 75 NW 24 39 29.93 1014 10 16.0934 0 0
2:40 pm 14:40 Mostly Cloudy 28 -2.2 21 -6.1 75 75 WNW 21 33 30.01 1016 10 16.0934 0 0
2:53 pm 14:53 Mostly Cloudy 28 -2.2 21 -6.1 75 75 WNW 21 33 29.96 1015 10 16.0934 0 0
3:53 pm 15:53 Cloudy 28 -2.2 21 -6.1 75 75 WNW 21 33 29.97 1015 10 16.0934 0 0
4:53 pm 16:53 Partly Cloudy 25 -3.9 19 -7.2 78 78 WNW 21 33 30 1016 10 16.0934 0 0
5:53 pm 17:53 Clear 25 -3.9 18 -7.8 75 75 WNW 22 35 30.01 1016 10 16.0934 0 0
6:53 pm 18:53 Clear 26 -3.3 18 -7.8 71 71 WNW 23 37 30.01 1016 10 16.0934 0 0
7:53 pm 19:53 Mostly Cloudy 26 -3.3 16 -8.9 66 66 WNW 25 41 30.03 1017 10 16.0934 0 0
8:53 pm 20:53 Mostly Cloudy 25 -3.9 15 -9.4 66 66 WNW 20 31 30.04 1017 10 16.0934 0 0
9:53 pm 21:53 Mostly Cloudy 25 -3.9 14 -10 63 63 WNW 24 39 30.05 1018 10 16.0934 0 0
10:53 pm 22:53 Clear 22 -5.6 13 -10.6 68 68 WNW 18 30 30.06 1018 10 16.0934 0 0
11:53 pm 23:53 Clear 23 -5 12 -11.1 63 63 WNW 28 44 30.06 1018 10 16.0934 0 0

Powered by AerisWeather